Weather History for KJAS - December, 2012

Change the Weather History Date:

Tuesday, December 25, 2012

  Actual Average (KLFK) Record (KLFK)
Temperature  
Mean Temperature 54 °F 49 °F  
Max Temperature 71 °F 60 °F 86 °F (1911)
Min Temperature 37 °F 38 °F 8 °F (1983)
Degree Days  
Heating Degree Days 11 16  
Month to date heating degree days 370  
Since 1 July heating degree days 677  
Cooling Degree Days 0 0  
Month to date cooling degree days 4  
Year to date cooling degree days 2587  
Growing Degree Days 4 (Base 50)    
Moisture  
Dew Point 50 °F    
Average Humidity 80    
Maximum Humidity 97    
Minimum Humidity 48    
Precipitation  
Precipitation 0.39 in 0.14 in 2.00 in (1911)
Month to date precipitation 3.66  
Year to date precipitation 48.17  
Snow  
Snow 0.00 in - - ()
Month to date snowfall  
Since 1 July snowfall  
Snow Depth -    
Sea Level Pressure  
Sea Level Pressure 29.72 in    
Wind  
Wind Speed 9 mph (West)    
Max Wind Speed 25 mph    
Max Gust Speed 44 mph    
Visibility 9 miles    
Events Fog , Rain    
T = Trace of Precipitation, MM = Missing Value Source: NWS Daily Summary

Daily Weather History Graph

Daily Weather History Graph

Search for Another Location

Airport or City:

Trip Planner

Search our weather history database for the weather conditions in past years. The results will help you decide how hot, cold, wet, or windy it might be!

Date:

Astronomy

Dec. 25, 2012 Rise Set
Actual Time 7:12 AM CST 5:21 PM CST
Civil Twilight 6:45 AM CST 5:47 PM CST
Nautical Twilight 6:15 AM CST 6:17 PM CST
Astronomical Twilight 5:45 AM CST 6:47 PM CST
Moon 3:27 PM CST (12/25) 4:47 AM CST (12/25)
Length of Visible Light 11h 02m
Length of Day
10h 09m
Waxing Gibbous, 94% of the Moon is Illuminated
Dec 25
Waxing Gibbous
Dec 28
Full
Jan 4
Last Quarter
Jan 11
New
Jan 18
First Quarter

Hourly Weather History & Observations

Time (CST) Temp. Windchill Dew Point Humidity Pressure Visibility Wind Dir Wind Speed Gust Speed Precip Events Conditions
12:15 AM 56.3 °F - 45.3 °F 67% 29.81 in 10.0 mi ENE 4.6 mph - N/A   Clear
12:35 AM 55.8 °F - 46.4 °F 71% 29.82 in 10.0 mi NE 3.5 mph - N/A   Scattered Clouds
12:55 AM 55.9 °F - 46.9 °F 72% 29.80 in 10.0 mi NE 4.6 mph - N/A Rain Light Rain
1:15 AM 56.3 °F - 46.9 °F 71% 29.80 in 10.0 mi ENE 6.9 mph - N/A   Overcast
1:35 AM 56.7 °F - 47.1 °F 70% 29.79 in 10.0 mi ENE 5.8 mph - N/A   Light Drizzle
1:55 AM 56.7 °F - 48.0 °F 73% 29.77 in 10.0 mi ENE 5.8 mph - N/A Rain Light Rain
2:15 AM 56.8 °F - 49.5 °F 76% 29.74 in 10.0 mi ENE 6.9 mph - N/A   Overcast
2:35 AM 57.7 °F - 50.9 °F 78% 29.72 in 10.0 mi East 8.1 mph - 0.01 in Rain Heavy Rain
3:55 AM - - - N/A% - - North - - N/A   Unknown
4:15 AM - - - N/A% - - North - - N/A   Unknown
4:35 AM - - - N/A% - - North - - N/A   Unknown
4:55 AM 57.2 °F - 55.8 °F 95% 29.72 in - ENE 4.6 mph - N/A   Unknown
5:15 AM 57.2 °F - 55.8 °F 95% 29.71 in 7.0 mi Calm Calm - N/A Rain Light Rain
5:35 AM 57.0 °F - 55.6 °F 95% 29.73 in 10.0 mi East 3.5 mph - N/A   Overcast
5:55 AM 56.7 °F - 55.4 °F 96% 29.71 in 7.0 mi East 4.6 mph - N/A Rain Rain
6:15 AM 56.7 °F - 55.6 °F 96% 29.70 in 7.0 mi East 3.5 mph - N/A   Overcast
6:35 AM 56.5 °F - 55.4 °F 96% 29.68 in 7.0 mi East 5.8 mph - N/A   Overcast
6:55 AM 56.8 °F - 55.8 °F 96% 29.67 in 5.0 mi Calm Calm - N/A   Overcast
7:15 AM 57.4 °F - 56.3 °F 96% 29.66 in 2.5 mi East 4.6 mph - N/A   Overcast
7:35 AM 58.1 °F - 57.0 °F 96% 29.63 in 0.8 mi ESE 4.6 mph - N/A   Overcast
7:55 AM 59.0 °F - 58.1 °F 97% 29.61 in 0.5 mi SE 4.6 mph - 0.01 in Fog Fog
8:15 AM 60.8 °F - 59.9 °F 97% 29.61 in 0.8 mi SSE 5.8 mph - N/A   Overcast
8:35 AM 62.2 °F - 61.3 °F 97% 29.60 in 4.0 mi SSE 5.8 mph - N/A   Overcast
8:55 AM 63.5 °F - 62.6 °F 97% 29.59 in 7.0 mi SSE 6.9 mph - N/A Rain Light Rain
9:15 AM 64.4 °F - 63.3 °F 96% 29.60 in 7.0 mi SSE 8.1 mph 18.4 mph N/A   Mostly Cloudy
9:35 AM 65.1 °F - 63.9 °F 96% 29.62 in 7.0 mi SSE 5.8 mph - N/A Rain Rain
9:55 AM 65.5 °F - 64.0 °F 95% 29.60 in 7.0 mi South 8.1 mph - N/A   Overcast
10:15 AM 66.9 °F - 65.1 °F 94% 29.56 in 10.0 mi South 13.8 mph 18.4 mph N/A Rain Light Rain
10:35 AM 69.3 °F - 65.8 °F 89% 29.55 in 10.0 mi South 19.6 mph 25.3 mph N/A   Overcast
10:55 AM 70.9 °F - 66.2 °F 85% 29.52 in 10.0 mi South 17.3 mph 31.1 mph N/A Rain Light Rain
11:15 AM 71.6 °F - 66.2 °F 83% 29.52 in 7.0 mi South 18.4 mph 35.7 mph 0.01 in Rain Rain
11:35 AM 67.5 °F - 63.5 °F 87% 29.62 in 1.2 mi WSW 23.0 mph 43.7 mph 0.35 in Rain Rain
11:55 AM 59.7 °F - 58.3 °F 95% 29.61 in 10.0 mi WSW 10.4 mph - 0.36 in Rain Light Rain
12:15 PM 59.0 °F - 57.7 °F 96% 29.60 in 10.0 mi WSW 10.4 mph - N/A   Overcast
12:35 PM 59.2 °F - 58.1 °F 96% 29.59 in 10.0 mi WSW 10.4 mph 16.1 mph N/A   Mostly Cloudy
12:55 PM 61.0 °F - 57.7 °F 89% 29.60 in 10.0 mi WSW 10.4 mph 18.4 mph N/A   Mostly Cloudy
1:15 PM 65.1 °F - 57.0 °F 75% 29.59 in 10.0 mi WSW 21.9 mph 28.8 mph N/A   Scattered Clouds
1:35 PM 68.0 °F - 51.4 °F 55% 29.58 in 10.0 mi West 15.0 mph 27.6 mph N/A   Clear
1:55 PM 68.7 °F - 50.0 °F 51% 29.57 in 10.0 mi WSW 20.7 mph 28.8 mph 0.01 in   Clear
2:15 PM 68.4 °F - 47.7 °F 48% 29.59 in 10.0 mi West 17.3 mph 31.1 mph N/A   Clear
2:35 PM 67.5 °F - 47.7 °F 49% 29.59 in 10.0 mi West 19.6 mph 31.1 mph N/A   Scattered Clouds
2:55 PM 65.8 °F - 47.5 °F 52% 29.61 in 10.0 mi West 21.9 mph 33.4 mph N/A   Clear
3:15 PM 65.3 °F - 47.7 °F 53% 29.62 in 10.0 mi West 18.4 mph 28.8 mph N/A   Scattered Clouds
3:35 PM 64.2 °F - 48.7 °F 57% 29.64 in 10.0 mi WNW 15.0 mph 24.2 mph N/A   Mostly Cloudy
3:55 PM 61.3 °F - 49.1 °F 64% 29.66 in 10.0 mi WNW 16.1 mph 28.8 mph N/A   Overcast
4:15 PM 58.8 °F - 48.4 °F 68% 29.67 in 10.0 mi WNW 13.8 mph 26.5 mph N/A   Mostly Cloudy
4:35 PM 58.1 °F - 48.2 °F 70% 29.68 in 10.0 mi West 18.4 mph 24.2 mph N/A   Mostly Cloudy
4:55 PM 57.9 °F - 47.8 °F 69% 29.69 in 10.0 mi West 15.0 mph 25.3 mph N/A   Mostly Cloudy
5:15 PM 56.3 °F - 46.6 °F 70% 29.71 in 10.0 mi West 20.7 mph 36.8 mph N/A   Scattered Clouds
5:35 PM 54.1 °F - 46.0 °F 74% 29.74 in 10.0 mi WNW 19.6 mph 32.2 mph N/A   Mostly Cloudy
5:55 PM 51.4 °F - 44.4 °F 77% 29.76 in 10.0 mi West 16.1 mph 27.6 mph N/A   Overcast
6:35 PM 48.4 °F - 41.0 °F 76% 29.81 in 10.0 mi WNW 25.3 mph 36.8 mph N/A   Overcast
6:55 PM 46.9 °F - 40.1 °F 77% 29.83 in 10.0 mi WNW 16.1 mph 26.5 mph N/A   Overcast
7:15 PM 45.7 °F 38.0 °F 39.7 °F 80% 29.84 in 10.0 mi WNW 19.6 mph 28.8 mph N/A   Overcast
7:35 PM 44.6 °F 38.4 °F 39.2 °F 81% 29.85 in 10.0 mi WNW 12.7 mph 27.6 mph N/A   Overcast
7:55 PM 43.7 °F 35.2 °F 39.2 °F 84% 29.88 in 7.0 mi West 20.7 mph 28.8 mph N/A   Overcast
8:15 PM 42.6 °F 33.5 °F 38.3 °F 85% 29.89 in 10.0 mi WNW 21.9 mph 35.7 mph N/A   Overcast
8:35 PM 42.1 °F 35.7 °F 36.5 °F 81% 29.90 in 10.0 mi WNW 11.5 mph 27.6 mph N/A   Overcast
8:55 PM 41.4 °F 35.7 °F 36.5 °F 83% 29.91 in 10.0 mi WNW 9.2 mph 18.4 mph N/A   Overcast
9:15 PM 41.0 °F 33.1 °F 35.6 °F 81% 29.92 in 10.0 mi WNW 15.0 mph 24.2 mph N/A   Overcast
10:15 PM 39.2 °F 30.8 °F 32.7 °F 78% 29.97 in 10.0 mi WNW 15.0 mph 21.9 mph N/A   Overcast
10:35 PM 38.7 °F 30.1 °F 32.5 °F 79% 29.98 in 10.0 mi WNW 15.0 mph 24.2 mph N/A   Overcast
10:55 PM 38.5 °F 30.7 °F 32.9 °F 80% 29.99 in 10.0 mi WNW 12.7 mph 23.0 mph N/A   Overcast
11:15 PM 37.9 °F 27.9 °F 32.2 °F 80% 30.00 in 10.0 mi NW 19.6 mph 26.5 mph N/A   Overcast
11:35 PM 37.4 °F 28.5 °F 31.8 °F 80% 30.00 in 10.0 mi WNW 15.0 mph 24.2 mph N/A   Overcast
11:55 PM 37.4 °F 28.9 °F 31.8 °F 80% 30.01 in 10.0 mi WNW 13.8 mph 25.3 mph N/A   Overcast